Location: Cosy Dell
(34.2789°N, 117.4537°W)
Time: 12:20:44
(UTC+00:00)

ERS-1 Rocket - Pass Details

Date: 14 July 2020
Orbit: 752 x 758 km, 98.5° (Epoch: 09 August)

Event Time Altitude Azimuth Distance (km) Brightness Sun altitude
Exits shadow 04:56:29 32° 97° (E) 1,294 3.8 -19.7°
Maximum altitude 04:57:32 35° 71° (ENE) 1,213 3.8 -19.9°
Drops below altitude 10° 05:02:05 10° 7° (N) 2,290 6.0 -20.5°
Sets 05:04:32 0° 358° (N) 3,218 7.0 -20.9°
